www.pogodaiklimat.ru
Время
(UTC), дата
03 25.11
06 25.11
09 25.11
12 25.11
15 25.11
18 25.11
21 25.11
00 26.11
03 26.11
06 26.11
09 26.11
12 26.11
15 26.11
18 26.11
21 26.11
00 27.11
03 27.11
06 27.11
09 27.11
12 27.11
15 27.11
18 27.11
21 27.11
00 28.11
03 28.11
06 28.11
09 28.11
12 28.11
15 28.11
18 28.11
21 28.11
00 29.11
03 29.11
06 29.11
09 29.11
12 29.11
15 29.11
18 29.11
21 29.11
00 30.11
03 30.11
06 30.11
09 30.11
12 30.11
15 30.11
18 30.11
21 30.11
00 1.12
03 1.12
06 1.12
09 1.12
12 1.12
15 1.12
18 1.12
21 1.12
00 2.12
Ветер
(напр.,м/с)
Видим. Явления Облачность Т
(С)
Тd
(С)
f
(%)
Тe
(С)
Тes
(С)
Комфортность P
(гПа)
Po
(гПа)
Тmin
(С)
Tmax
(С)
R
(мм)
R24
(мм)
S
(см)
З 3 10 км 9/9 600 м
[Sc]
+5.1 +2.3 82 +2 +2 тепло 1021.3 1003.7
ЮЗ 4 10 км 9/9 600 м
[Sc]
+4.7 +2.1 83 +1 +1 тепло 1021.3 1003.7 +4.5
СЗ 4 10 км 9/9 600 м
[Sc]
+4.8 +2.3 84 +1 +1 по сезону 1022.3 1004.7
З 2 10 км 9/9 600 м
[Sc]
+5.7 +3.4 85 +3 +3 тепло 1022.1 1004.5
З 2 10 км 9/9 600 м
[Sc]
+5.5 +3.2 85 +3 +3 тепло 1022.7 1005.1
З 2 9000 м дымка 8/6 600 м
[Sc Ci fib]
+5.1 +3.3 88 +2 +2 тепло 1023.4 1005.8 +5.8
ЮЗ 3 10 км 9/9 600 м
[Sc]
+4.8 +1.3 78 +1 +1 по сезону 1023.7 1006.0
З 1 10 км 9/9 600 м
[Sc]
+3.6 +0.1 78 +2 +2 тепло 1023.7 1006.0
ЮЗ 1 7000 м дымка ясно -0.1 -1.1 93 -2 -2 по сезону 1023.2 1005.2
ЮЗ 1 3100 м дымка 3/0
[Ci fib]
-2.1 -2.4 98 -5 -5 по сезону 1023.3 1005.2 -2.1
З 2 8000 м дымка 3/0
[Ci fib]
-0.2 -1.5 91 -4 -3 по сезону 1022.7 1004.7
ЮЗ 2 10 км 3/0
[Ci fib]
+3.1 -1.5 72 0 +1 по сезону 1020.9 1003.2
ЮЗ 1 10 км ясно +0.7 -1.5 85 -1 -1 по сезону 1020.3 1002.4
ЮЗ 4 9000 м дымка 3/0
[Ci fib]
-0.2 -1.6 90 -6 -6 прохладно 1019.4 1001.5 +3.4
З 3 3500 м дымка 10/10 300 м
[St]
+0.2 -0.1 98 -5 -5 по сезону 1018.7 1000.8
ЮЗ 3 3600 м дымка 9/9 600 м
[Sc]
+0.7 +0.3 97 -4 -4 по сезону 1017.4 999.6
ЮЗ 3 3100 м дымка 10/10 300 м
[St]
+1.4 +1.3 99 -3 -3 по сезону 1016.5 998.7
ЮЗ 3 3200 м дымка 10/10 300 м
[St]
+2.4 +2.1 98 -2 -2 по сезону 1016.1 998.4 -0.8
ЮЗ 4 6000 м дымка 10/10 300 м
[St]
+4.1 +3.2 94 -1 -1 по сезону 1016.0 998.4
ЮЗ 5
{10}
9000 м дымка 9/9 600 м
[Sc]
+5.7 +3.4 85 +1 +1 по сезону 1015.2 997.7
З 3
{10}
9000 м слаб. дождь 10/10 300 м
[Frnb Ns]
+5.1 +3.8 91 +2 +2 по сезону 1016.0 998.5
З 3 6000 м дымка {дождь} 9/9 600 м
[Sc]
+4.2 +3.3 94 0 0 по сезону 1016.3 998.7 +5.9 2
ЮЗ 2 3600 м дымка 9/9 600 м
[Sc]
+3.7 +3.3 97 +1 +1 по сезону 1016.0 998.4
З 2 3800 м дымка {дождь} 9/9 300 м
[Sc]
+3.1 +2.4 95 -0 -0 по сезону 1015.5 997.9
СЗ 1 3300 м слаб. дождь 10/10 300 м
[Frnb Ns]
+1.4 +1.4 100 -1 -1 по сезону 1015.8 998.1
С 1 3700 м дымка {дождь} 10/10 300 м
[St]
+0.6 +0.6 100 -2 -2 по сезону 1016.6 998.8 +0.5 2
штиль 0 3800 м слаб. снег {дождь} 10/10 300 м
[Frnb Ns]
+1.5 +0.9 96 0 0 по сезону 1017.5 999.7
СВ 1 6000 м в посл. час дождь 10/8 600 м
[Sc Ci fib]
+1.6 +0.7 94 -0 -0 по сезону 1017.5 999.7
СВ 2 4200 м в посл. час снег 10/10 300 м
[St]
+0.3 -0.3 96 -3 -3 по сезону 1018.5 1000.6
СВ 2 7000 м в посл. час снег 9/9 300 м
[Sc]
0.0 -1.1 92 -4 -4 по сезону 1018.8 1000.9 +1.8 0.6
С 1 3800 м дымка {снег} 10/10 300 м
[St]
-0.6 -0.9 98 -3 -3 по сезону 1019.3 1001.4
С 2 6000 м дымка {снег} 10/10 300 м
[St]
-0.8 -1.6 94 -5 -5 по сезону 1019.1 1001.1
СЗ 2 3100 м слаб. снег 10/10 300 м
[Frnb Ns]
-1.0 -1.1 99 -5 -5 по сезону 1018.7 1000.7
СЗ 1 3100 м в посл. час снег 9/9 600 м
[Sc]
-0.7 -0.7 100 -3 -3 по сезону 1018.6 1000.7 -1.0 0.1 0
С 1 3100 м слаб. снег {дождь} 10/10 300 м
[Frnb Ns]
+0.1 +0.1 100 -2 -2 по сезону 1019.0 1001.1
С 1 900 м ливневой снег {дождь} 10/10 300 м
[Frnb Ns]
+0.1 +0.1 100 -2 -2 по сезону 1018.6 1000.7
СЗ 1 3100 м слаб. снег 10/10 300 м
[Frnb Ns]
0.0 0.0 100 -2 -2 по сезону 1019.2 1001.3
З 1 1600 м слаб. снег 10/10 300 м
[Ns]
-0.2 -0.2 100 -3 -3 по сезону 1019.5 1001.6 +0.5 5
ЮЗ 1 1500 м снег 10/10 300 м
[Ns]
-0.1 -0.1 100 -2 -2 по сезону 1020.4 1002.5
З 1 1500 м снег 10/10 300 м
[Ns]
-0.3 -0.3 100 -3 -3 по сезону 1021.4 1003.4
ЮЗ 1 2400 м слаб. снег 10/10 300 м
[Ns]
-1.0 -1.0 100 -3 -3 по сезону 1022.5 1004.5
ЮЗ 1 3300 м слаб. снег 10/10 300 м
[Ns]
-0.5 -0.6 99 -3 -3 по сезону 1023.8 1005.8 -1.3 3 6
З 2 2600 м в посл. час снег 10/10 300 м
[St]
0.0 -0.3 98 -4 -4 по сезону 1025.3 1007.3
З 2 6000 м дымка {снег} 10/10 300 м
[St]
+0.1 -1.2 91 -4 -4 по сезону 1025.7 1007.7
ЮЗ 1 3800 м слаб. снег 10/10 300 м
[Frnb Ns]
-0.4 -1.1 95 -3 -3 по сезону 1026.6 1008.5
ЮЗ 2 3100 м слаб. снег 10/10 300 м
[St]
-0.3 -0.4 99 -4 -4 по сезону 1026.9 1008.8 +1.0 0.6
ЮЗ 2 3100 м в посл. час снег 10/10 300 м
[St]
-0.8 -0.9 99 -5 -5 по сезону 1027.5 1009.4
ЮЗ 1 3100 м дымка {снег} 10/10 300 м
[St]
-1.5 -2.2 95 -4 -4 по сезону 1027.5 1009.3
Ю 1 3100 м дымка 10/10 300 м
[St]
-2.7 -3.0 98 -5 -5 по сезону 1027.7 1009.5
ЮВ 1 1500 м дымка 10/10 300 м
[St]
-7.3 -7.3 100 -10 -10 прохладно 1029.1 1010.5 -7.3 0.0 7
В 1 1200 м дымка {туман} 10/8 600 м
[Sc Ac trans]
-5.7 -6.0 98 -8 -8 прохладно 1029.6 1011.1
ЮВ 1 10 км {туман} 3/0
[Ci fib]
-1.8 -4.0 85 -4 -3 по сезону 1029.1 1010.9
ЮВ 1 8000 м дымка ясно -2.9 -4.0 92 -5 -5 по сезону 1029.8 1011.5
В 1 2300 м дымка ясно -4.6 -4.6 100 -7 -7 прохладно 1030.6 1012.2 -1.2
штиль 0 600 м туман ?/? -6.6 -6.6 100 -8 -8 прохладно 1031.5 1012.9
В 1 500 м переохл. туман [диам. изморози 2 мм] ?/? -7.2 -7.2 100 -10 -10 холодно 1031.4 1012.8
Местоположение метеостанции Пинск (Брестская область, Беларусь): широта 52.12 долгота 26.06 высота над уровнем моря 142 м.
В архиве по умолчанию представлена погода в Пинске за последнюю неделю. Архивные данные за месяц целиком и за предыдущие месяцы, начиная с января 2011 года, Вы можете получить, выбрав интересующий диапазон дат из раскрывающегося списка и нажав кнопку "Найти!".
*Определитесь, кто Вы:
Внимание! Время в таблицах - всемирное. Для получения местного времени необходимо прибавить поправку, которая равна 3 ч.
Смотрите также архив погоды в соседних городах и на ближайших метеорологических станциях:
Партнеры нашего сайта:      
Пояснения к столбцам:
  • Ветер - указаны скорость ветра в м/с - средняя за 10 мин, порывы в срок и между сроками (в фигурных скобках) и направление, откуда дует ветер: С - северный,
  • СВ - северо-восточный, В - восточный, ЮВ - юго-восточный, Ю - южный, ЮЗ - юго-западный, З - западный, СЗ - северо-западный.
  • Видимость - горизонтальная дальность видимости в метрах или километрах. При видимости от 1 до 10 км при отсутствии осадков обычно наблюдается дымка, при ухудшении видимости до 1 км и менее - туман. В сухую погоду видимость может ухудшаться дымом, пылью или мглою.
  • Явления - указаны атмосферные явления, наблюдавшиеся в срок или в последний час перед сроком; фигурными скобками обозначены явления, наблюдавшиеся между сроками (за 1-3 часа до срока); квадратными скобками обозначены град или гололедные отложения с указанием их диаметра в мм.
  • Облачность - указаны через наклонную черту общая и нижняя облачность в баллах и высота нижней границы облаков в метрах; квадратными скобками обозначены формы облаков: Ci - перистые, Cs - перисто-слоистые, Cc - перисто-кучевые, Ac - высококучевые, As - высокослоистые, Sc - слоисто-кучевые, Ns - слоисто-дождевые, Cu - кучевые, Cb - кучево-дождевые. Подробнее классификацию облаков см. в Атласе облаков (PDF).
  • T - Температура воздуха - температура, измеренная на высоте 2 м над землей.
  • Td - Температура точки росы - температура, при понижении до которой содержащийся в воздухе водяной пар достигнет насыщения.
  • f - Относительная влажность воздуха - влажноcть воздуха, измеренная на высоте 2 м над землей.
  • Te - Эффективная температура - температура, которую ощущает одетый по сезону человек в тени. Характеристика душности погоды. При расчете учитывается влияние влажности воздуха и скорости ветра на теплоощущения человека.
  • Tes - Эффективная температура на солнце - температура, которую ощущает человек, с поправкой на солнечный нагрев. Характеристика знойности погоды. Зависит от высоты солнца над горизонтом, облачности и скорости ветра. Ночью, в пасмурную погоду, а также при ветре 12 м/с и более поправка равна нулю.
  • P - Атмосферное давление - приведенное к уровню моря атмосферное давление.
  • Po - Атмосферное давление - измеренное на уровне метеостанции атмосферное давление.
  • Tmin - Минимальная температура - минимум температуры воздуха на высоте 2 м над землей.
  • Tmax - Максимальная температура - максимум температуры воздуха на высоте 2 м над землей.
  • R - Количество осадков - Количество выпавших осадков за период времени, мм. При наведении курсора мыши на число - период времени, за который выпало указанное количество осадков.
  • R24 - Количество осадков - Количество выпавших осадков за 24 часа, мм.
  • S - Снежный покров - Высота снежного покрова, см. При наведении курсора мыши на число - состояние снежного покрова и степень покрытия местности в баллах.